Location: Possagno
(45.8500°N, 11.8667°E)
Time: 09:55:21
(UTC+00:00)

STARLINK-2720 - Pass Details

Date: 30 July 2021
Orbit: 546 x 548 km, 53.1° (Epoch: 22 September)

Event Time Altitude Azimuth Distance (km) Brightness Sun altitude
Rises 20:58:19 0° 286° (WNW) 2,718 8.0 -18.4°
Reaches altitude 10° 21:01:56 10° 254° (WSW) 1,818 6.5 -18.7°
Maximum altitude 21:03:22 12° 233° (SW) 1,714 6.1 -18.9°
Enters shadow 21:04:22 11° 219° (SW) 1,763 6.0 -19.0°
